| time (UTC) | temp C | wind direction | speed KPH | gust KPH | rain 1hr cm | rain 24hr cm | rain mn cm | humidity % | barometer mb |
| 20260904122419 | 21 | 143 | 1.6 | 4.8 | 0.00 | 1.22 | 0.00 | 95 | 1015.9 |
| 20260904121913 | 21 | 171 | 1.6 | 4.8 | 0.00 | 1.22 | 0.00 | 95 | 1015.8 |
| 20260904121407 | 21 | 143 | 1.6 | 4.8 | 0.00 | 1.22 | 0.00 | 95 | 1015.8 |
| 20260904120907 | 21 | 155 | 1.6 | 6.4 | 0.00 | 1.22 | 0.00 | 95 | 1015.9 |
| 20260904120407 | 21 | 234 | 1.6 | 6.4 | 0.00 | 1.22 | 0.00 | 95 | 1015.8 |
| 20260904120206 | 21 | 125 | 1.6 | 4.8 | 0.00 | 1.22 | 0.00 | 95 | 1015.8 |
| 20260904115406 | 21 | 160 | 1.6 | 4.8 | 0.00 | 1.22 | 0.00 | 95 | 1015.8 |
| 20260904115202 | 21 | 171 | 1.6 | 4.8 | 0.00 | 1.22 | 0.00 | 95 | 1015.8 |
| 20260904114403 | 21 | 162 | 1.6 | 4.8 | 0.00 | 1.22 | 0.00 | 95 | 1015.9 |
| 20260904113904 | 21 | 234 | 0.0 | 1.6 | 0.00 | 1.22 | 0.00 | 95 | 1016.0 |
| 20260904113659 | 21 | 11 | 0.0 | 4.8 | 0.00 | 1.22 | 0.00 | 95 | 1015.9 |
| 20260904113249 | 21 | 279 | 0.0 | 1.6 | 0.00 | 1.22 | 0.00 | 95 | 1015.9 |
| 20260904112939 | 21 | 234 | 0.0 | 4.8 | 0.00 | 1.22 | 0.00 | 95 | 1015.9 |
| 20260904111903 | 21 | 305 | 0.0 | 4.8 | 0.00 | 1.22 | 0.00 | 95 | 1015.8 |
| 20260904111403 | 21 | 251 | 0.0 | 4.8 | 0.00 | 1.22 | 0.00 | 95 | 1015.8 |
| 20260904110902 | 21 | 171 | 1.6 | 4.8 | 0.00 | 1.22 | 0.00 | 95 | 1015.9 |
| 20260904110402 | 21 | 215 | 1.6 | 4.8 | 0.00 | 1.22 | 0.00 | 95 | 1015.7 |
| 20260904105902 | 21 | 132 | 1.6 | 4.8 | 0.00 | 1.22 | 0.00 | 95 | 1015.6 |
| 20260904105402 | 21 | 198 | 1.6 | 4.8 | 0.00 | 1.22 | 0.00 | 95 | 1015.8 |
| 20260904104903 | 21 | 198 | 0.0 | 4.8 | 0.00 | 1.22 | 0.00 | 95 | 1015.6 |
| 20260904104403 | 21 | 116 | 0.0 | 1.6 | 0.00 | 1.22 | 0.00 | 95 | 1015.5 |
| 20260904103903 | 21 | 143 | 0.0 | 4.8 | 0.00 | 1.22 | 0.00 | 95 | 1015.6 |
| 20260904103651 | 21 | 279 | 1.6 | 4.8 | 0.00 | 1.22 | 0.00 | 95 | 1015.6 |
| 20260904102904 | 21 | 143 | 1.6 | 4.8 | 0.00 | 1.22 | 0.00 | 95 | 1015.5 |
| 20260904102650 | 21 | 143 | 1.6 | 4.8 | 0.00 | 1.22 | 0.00 | 95 | 1015.4 |
| 20260904101904 | 21 | 234 | 1.6 | 4.8 | 0.00 | 1.22 | 0.00 | 95 | 1015.2 |
| 20260904101741 | 21 | 121 | 1.6 | 4.8 | 0.00 | 1.22 | 0.00 | 95 | 1015.3 |
| 20260904101432 | 21 | 234 | 1.6 | 4.8 | 0.00 | 1.22 | 0.00 | 95 | 1015.2 |
| 20260904100402 | 21 | 11 | 1.6 | 6.4 | 0.00 | 1.22 | 0.00 | 95 | 1015.3 |
| 20260904095903 | 21 | 0 | 1.6 | 8.0 | 0.00 | 1.22 | 0.00 | 95 | 1015.4 |
| 20260904095402 | 21 | 312 | 3.2 | 8.0 | 0.00 | 1.22 | 0.00 | 95 | 1015.2 |
| 20260904094903 | 21 | 326 | 1.6 | 6.4 | 0.00 | 1.22 | 0.00 | 95 | 1015.1 |
| 20260904094403 | 21 | 348 | 1.6 | 6.4 | 0.00 | 1.22 | 0.00 | 95 | 1015.3 |
| 20260904093901 | 21 | 11 | 0.0 | 4.8 | 0.00 | 1.22 | 0.00 | 94 | 1014.8 |
| 20260904093402 | 21 | 54 | 0.0 | 4.8 | 0.00 | 1.22 | 0.00 | 94 | 1014.5 |
| 20260904092902 | 21 | 187 | 0.0 | 1.6 | 0.00 | 1.22 | 0.00 | 94 | 1014.5 |
| 20260904092402 | 21 | 326 | 0.0 | 1.6 | 0.00 | 1.22 | 0.00 | 94 | 1014.5 |
| 20260904091858 | 21 | 234 | 0.0 | 4.8 | 0.00 | 1.22 | 0.00 | 94 | 1014.4 |
| 20260904091349 | 21 | 11 | 1.6 | 4.8 | 0.00 | 1.22 | 0.00 | 94 | 1014.2 |
| 20260904090843 | 21 | 143 | 0.0 | 1.6 | 0.00 | 1.22 | 0.00 | 94 | 1014.4 |
| 20260904090338 | 21 | 54 | 0.0 | 1.6 | 0.00 | 1.22 | 0.00 | 94 | 1014.5 |
| 20260904090128 | 21 | 11 | 0.0 | 4.8 | 0.00 | 1.22 | 0.00 | 94 | 1014.4 |
| 20260904085333 | 21 | 143 | 0.0 | 4.8 | 0.00 | 1.22 | 0.00 | 94 | 1014.5 |
| 20260904084834 | 21 | 143 | 0.0 | 4.8 | 0.00 | 1.22 | 0.00 | 94 | 1014.6 |
| 20260904084333 | 21 | 143 | 1.6 | 1.6 | 0.00 | 1.22 | 0.00 | 94 | 1014.7 |
| 20260904083833 | 21 | 188 | 0.0 | 1.6 | 0.00 | 1.22 | 0.00 | 94 | 1014.6 |
| 20260904083333 | 21 | 326 | 1.6 | 4.8 | 0.00 | 1.22 | 0.00 | 94 | 1014.7 |
| 20260904082834 | 21 | 143 | 1.6 | 4.8 | 0.00 | 1.22 | 0.00 | 94 | 1014.7 |
| 20260904082331 | 21 | 143 | 0.0 | 1.6 | 0.00 | 1.22 | 0.00 | 94 | 1014.6 |
| 20260904081831 | 21 | 234 | 0.0 | 1.6 | 0.00 | 1.22 | 0.00 | 94 | 1014.7 |
| 20260904081622 | 21 | 54 | 0.0 | 1.6 | 0.00 | 1.22 | 0.00 | 94 | 1014.7 |
| 20260904080830 | 21 | 261 | 0.0 | 1.6 | 0.00 | 1.22 | 0.00 | 94 | 1014.9 |
| 20260904080330 | 21 | 188 | 0.0 | 1.6 | 0.00 | 1.22 | 0.00 | 94 | 1014.8 |
| 20260904075829 | 21 | 100 | 0.0 | 1.6 | 0.00 | 1.22 | 0.00 | 94 | 1014.8 |
| 20260904075623 | 21 | 279 | 0.0 | 1.6 | 0.00 | 1.22 | 0.00 | 94 | 1014.9 |
| 20260904074830 | 21 | 279 | 0.0 | 1.6 | 0.00 | 1.22 | 0.00 | 94 | 1015.0 |
| 20260904074331 | 21 | 100 | 0.0 | 1.6 | 0.00 | 1.22 | 0.00 | 94 | 1015.0 |
| 20260904073829 | 21 | 143 | 0.0 | 1.6 | 0.00 | 1.22 | 0.00 | 94 | 1015.1 |
| 20260904073331 | 21 | 54 | 0.0 | 1.6 | 0.00 | 1.22 | 0.00 | 94 | 1015.2 |
| 20260904072828 | 21 | 11 | 0.0 | 1.6 | 0.00 | 1.22 | 0.00 | 94 | 1015.3 |
| 20260904072331 | 21 | 100 | 0.0 | 1.6 | 0.00 | 1.22 | 0.00 | 93 | 1015.2 |
| 20260904071828 | 21 | 171 | 1.6 | 4.8 | 0.00 | 1.22 | 0.00 | 93 | 1015.3 |
| 20260904071328 | 21 | 143 | 1.6 | 6.4 | 0.00 | 1.22 | 0.00 | 93 | 1015.2 |
| 20260904070829 | 21 | 171 | 1.6 | 6.4 | 0.00 | 1.22 | 0.00 | 93 | 1015.2 |
| 20260904070329 | 21 | 198 | 1.6 | 4.8 | 0.00 | 1.22 | 0.00 | 93 | 1015.2 |
| 20260904065914 | 21 | 162 | 0.0 | 1.6 | 0.00 | 1.22 | 0.00 | 93 | 1014.9 |
| 20260904065858 | 21 | 188 | 1.6 | 4.8 | 0.00 | 1.22 | 0.00 | 93 | 1015.2 |
| 20260904064827 | 21 | 234 | 0.0 | 1.6 | 0.00 | 1.22 | 0.00 | 93 | 1014.7 |
| 20260904064327 | 21 | 171 | 0.0 | 4.8 | 0.00 | 1.22 | 0.00 | 93 | 1014.7 |
| 20260904063829 | 21 | 279 | 0.0 | 4.8 | 0.00 | 1.22 | 0.00 | 93 | 1014.6 |
| 20260904063327 | 21 | 54 | 0.0 | 1.6 | 0.00 | 1.22 | 0.00 | 93 | 1014.4 |
| 20260904062828 | 21 | 125 | 0.0 | 4.8 | 0.00 | 1.22 | 0.00 | 93 | 1014.2 |
| 20260904062328 | 21 | 100 | 0.0 | 4.8 | 0.00 | 1.22 | 0.00 | 93 | 1014.2 |
| 20260904061828 | 21 | 100 | 0.0 | 1.6 | 0.00 | 1.22 | 0.00 | 93 | 1014.3 |
| 20260904061328 | 21 | 82 | 0.0 | 1.6 | 0.00 | 1.22 | 0.00 | 93 | 1014.3 |
| 20260904061117 | 21 | 205 | 0.0 | 1.6 | 0.00 | 1.22 | 0.00 | 93 | 1014.2 |
| 20260904060321 | 21 | 54 | 1.6 | 4.8 | 0.00 | 1.22 | 0.00 | 93 | 1014.2 |
| 20260904055821 | 21 | 326 | 1.6 | 4.8 | 0.00 | 1.22 | 0.00 | 93 | 1014.1 |
| 20260904055321 | 21 | 33 | 0.0 | 8.0 | 0.00 | 1.22 | 0.00 | 92 | 1014.1 |
| 20260904055112 | 21 | 54 | 1.6 | 8.0 | 0.00 | 1.22 | 0.00 | 92 | 1014.4 |
| 20260904054323 | 21 | 162 | 1.6 | 6.4 | 0.00 | 1.22 | 0.00 | 92 | 1014.4 |
| 20260904053821 | 22 | 178 | 1.6 | 8.0 | 0.00 | 1.22 | 0.00 | 92 | 1014.7 |
| 20260904053410 | 22 | 143 | 3.2 | 8.0 | 0.00 | 1.22 | 0.00 | 92 | 1014.7 |
| 20260904053352 | 22 | 284 | 1.6 | 8.0 | 0.00 | 1.22 | 0.00 | 92 | 1014.7 |
| 20260904052321 | 22 | 171 | 3.2 | 8.0 | 0.00 | 1.22 | 0.00 | 92 | 1015.0 |
| 20260904051911 | 22 | 270 | 3.2 | 8.0 | 0.00 | 1.22 | 0.00 | 92 | 1015.2 |
| 20260904051854 | 22 | 152 | 3.2 | 8.0 | 0.00 | 1.22 | 0.00 | 92 | 1015.3 |
| 20260904050818 | 22 | 181 | 1.6 | 6.4 | 0.00 | 1.22 | 0.00 | 92 | 1014.9 |
| 20260904050413 | 22 | 134 | 1.6 | 4.8 | 0.00 | 1.22 | 0.00 | 92 | 1014.9 |
| 20260904050354 | 22 | 116 | 1.6 | 4.8 | 0.00 | 1.22 | 0.00 | 92 | 1014.7 |
| 20260904045318 | 22 | 158 | 1.6 | 4.8 | 0.00 | 1.22 | 0.00 | 91 | 1015.3 |
| 20260904044819 | 22 | 129 | 1.6 | 8.0 | 0.20 | 1.22 | 0.00 | 91 | 1015.8 |
| 20260904044321 | 22 | 279 | 3.2 | 8.0 | 0.66 | 1.22 | 0.00 | 91 | 1016.1 |
| 20260904043817 | 22 | 154 | 3.2 | 8.0 | 1.22 | 1.22 | 0.00 | 90 | 1016.7 |
| 20260904043318 | 22 | 191 | 1.6 | 8.0 | 1.22 | 1.22 | 0.00 | 90 | 1016.9 |
| 20260904042818 | 22 | 100 | 0.0 | 4.8 | 1.22 | 1.22 | 0.00 | 90 | 1016.9 |
| 20260904042317 | 22 | 54 | 1.6 | 4.8 | 1.22 | 1.22 | 0.00 | 90 | 1017.1 |
| 20260904041819 | 22 | 143 | 1.6 | 11.3 | 1.22 | 1.22 | 0.00 | 89 | 1017.3 |
| 20260904041317 | 22 | 100 | 3.2 | 12.9 | 1.22 | 1.22 | 0.00 | 88 | 1017.3 |
| 20260904040816 | 22 | 171 | 3.2 | 22.5 | 1.22 | 1.22 | 0.00 | 88 | 1017.5 |
| 20260904040317 | 23 | 167 | 4.8 | 22.5 | 1.22 | 1.22 | 0.00 | 87 | 1017.9 |
| 20260904040118 | 23 | 263 | 8.0 | 38.6 | 1.22 | 1.22 | 1.22 | 86 | 1017.9 |
| 20260904035316 | 23 | 248 | 11.3 | 45.1 | 1.22 | 1.22 | 1.22 | 85 | 1018.1 |
| 20260904034817 | 24 | 258 | 16.1 | 64.4 | 1.02 | 1.02 | 0.99 | 85 | 1018.4 |
| 20260904034613 | 25 | 276 | 12.9 | 64.4 | 0.56 | 0.56 | 0.53 | 85 | 1018.2 |
| 20260904033816 | 26 | 260 | 6.4 | 30.6 | 0.00 | 0.00 | 0.00 | 88 | 1017.5 |
| 20260904033317 | 26 | 275 | 3.2 | 14.5 | 0.00 | 0.00 | 0.00 | 88 | 1015.8 |
| 20260904032812 | 26 | 11 | 3.2 | 14.5 | 0.00 | 0.00 | 0.00 | 89 | 1015.3 |
| 20260904032311 | 26 | 312 | 1.6 | 11.3 | 0.00 | 0.00 | 0.00 | 89 | 1015.2 |
| 20260904031811 | 26 | 279 | 3.2 | 11.3 | 0.00 | 0.00 | 0.00 | 89 | 1015.4 |
| 20260904031311 | 26 | 21 | 3.2 | 11.3 | 0.00 | 0.00 | 0.00 | 89 | 1015.1 |
| 20260904030812 | 26 | 30 | 1.6 | 11.3 | 0.00 | 0.00 | 0.00 | 89 | 1015.3 |
| 20260904030310 | 26 | 11 | 0.0 | 1.6 | 0.00 | 0.00 | 0.00 | 89 | 1014.8 |
| 20260904025812 | 26 | 54 | 0.0 | 1.6 | 0.00 | 0.00 | 0.00 | 89 | 1014.9 |
| 20260904025311 | 26 | 11 | 0.0 | 4.8 | 0.00 | 0.00 | 0.00 | 88 | 1015.0 |
| 20260904024813 | 26 | 54 | 1.6 | 4.8 | 0.00 | 0.00 | 0.00 | 88 | 1014.9 |
| 20260904024311 | 26 | 54 | 0.0 | 4.8 | 0.00 | 0.00 | 0.00 | 88 | 1015.2 |
| 20260904023811 | 26 | 11 | 0.0 | 1.6 | 0.00 | 0.00 | 0.00 | 88 | 1015.3 |
| 20260904023602 | 26 | 353 | 0.0 | 1.6 | 0.00 | 0.00 | 0.00 | 88 | 1015.4 |
| 20260904022810 | 26 | 28 | 0.0 | 1.6 | 0.00 | 0.00 | 0.00 | 87 | 1015.5 |
| 20260904022310 | 26 | 326 | 0.0 | 1.6 | 0.00 | 0.00 | 0.00 | 87 | 1015.5 |
| 20260904021811 | 26 | 11 | 0.0 | 1.6 | 0.00 | 0.00 | 0.00 | 87 | 1015.4 |
| 20260904021601 | 26 | 234 | 0.0 | 1.6 | 0.00 | 0.00 | 0.00 | 87 | 1015.2 |
| 20260904020812 | 27 | 54 | 0.0 | 4.8 | 0.00 | 0.00 | 0.00 | 86 | 1015.2 |
| 20260904020311 | 27 | 69 | 0.0 | 4.8 | 0.00 | 0.00 | 0.00 | 86 | 1015.3 |
| 20260904015812 | 27 | 54 | 0.0 | 4.8 | 0.00 | 0.00 | 0.00 | 86 | 1015.3 |
| 20260904015313 | 27 | 54 | 0.0 | 4.8 | 0.00 | 0.00 | 0.00 | 86 | 1015.3 |
| 20260904015101 | 27 | 100 | 0.0 | 4.8 | 0.00 | 0.00 | 0.00 | 85 | 1015.3 |
| 20260904014311 | 27 | 54 | 0.0 | 4.8 | 0.00 | 0.00 | 0.00 | 85 | 1015.3 |
| 20260904013808 | 27 | 54 | 0.0 | 1.6 | 0.00 | 0.00 | 0.00 | 84 | 1015.3 |
| 20260904013306 | 27 | 54 | 0.0 | 1.6 | 0.00 | 0.00 | 0.00 | 84 | 1015.3 |
| 20260904012806 | 27 | 11 | 0.0 | 4.8 | 0.00 | 0.00 | 0.00 | 84 | 1015.3 |
| 20260904012306 | 27 | 69 | 0.0 | 4.8 | 0.00 | 0.00 | 0.00 | 84 | 1015.2 |
| 20260904011808 | 27 | 116 | 1.6 | 4.8 | 0.00 | 0.00 | 0.00 | 83 | 1015.2 |
| 20260904011306 | 27 | 82 | 1.6 | 1.6 | 0.00 | 0.00 | 0.00 | 83 | 1015.1 |
| 20260904010806 | 28 | 100 | 0.0 | 1.6 | 0.00 | 0.00 | 0.00 | 82 | 1015.2 |
| 20260904010303 | 28 | 117 | 0.0 | 1.6 | 0.00 | 0.00 | 0.00 | 82 | 1015.2 |
| 20260904005802 | 28 | 234 | 0.0 | 1.6 | 0.00 | 0.00 | 0.00 | 81 | 1015.2 |
| 20260904005306 | 28 | 82 | 0.0 | 4.8 | 0.00 | 0.00 | 0.00 | 81 | 1015.2 |
| 20260904005053 | 28 | 188 | 0.0 | 4.8 | 0.00 | 0.00 | 0.00 | 80 | 1015.3 |
| 20260904004304 | 28 | 218 | 0.0 | 1.6 | 0.00 | 0.00 | 0.00 | 80 | 1015.4 |
| 20260904003804 | 28 | 82 | 0.0 | 1.6 | 0.00 | 0.00 | 0.00 | 79 | 1015.5 |
| 20260904003303 | 28 | 100 | 0.0 | 1.6 | 0.00 | 0.00 | 0.00 | 79 | 1015.7 |
| 20260904002803 | 29 | 143 | 0.0 | 1.6 | 0.00 | 0.00 | 0.00 | 78 | 1015.9 |
| 20260904002553 | 29 | 100 | 0.0 | 1.6 | 0.00 | 0.00 | 0.00 | 78 | 1015.9 |
| 20260904001802 | 29 | 54 | 0.0 | 4.8 | 0.00 | 0.00 | 0.00 | 77 | 1015.8 |
| 20260904001303 | 30 | 117 | 0.0 | 4.8 | 0.00 | 0.00 | 0.00 | 76 | 1015.8 |
| 20260904000802 | 30 | 117 | 0.0 | 4.8 | 0.00 | 0.00 | 0.00 | 75 | 1015.8 |
| 20260904000303 | 30 | 73 | 0.0 | 4.8 | 0.00 | 0.00 | 0.00 | 75 | 1015.8 |
| 20260904000050 | 30 | 54 | 0.0 | 4.8 | 0.00 | 0.00 | 0.00 | 74 | 1015.8 |
| 20260903235305 | 30 | 143 | 1.6 | 4.8 | 0.00 | 0.00 | 0.00 | 73 | 1015.6 |
| 20260903235056 | 31 | 107 | 1.6 | 4.8 | 0.00 | 0.00 | 0.00 | 72 | 1015.6 |
| 20260903234551 | 31 | 188 | 0.0 | 4.8 | 0.00 | 0.00 | 0.00 | 72 | 1015.5 |
| 20260903233803 | 31 | 11 | 0.0 | 1.6 | 0.00 | 0.00 | 0.00 | 71 | 1015.3 |
| 20260903233301 | 31 | 100 | 0.0 | 4.8 | 0.00 | 0.00 | 0.00 | 70 | 1015.2 |
| 20260903232802 | 31 | 117 | 0.0 | 4.8 | 0.00 | 0.00 | 0.00 | 69 | 1015.2 |
| 20260903232553 | 31 | 234 | 1.6 | 6.4 | 0.00 | 0.00 | 0.00 | 69 | 1015.1 |
| 20260903231802 | 32 | 162 | 1.6 | 6.4 | 0.00 | 0.00 | 0.00 | 67 | 1015.1 |
| 20260903231303 | 32 | 171 | 1.6 | 6.4 | 0.00 | 0.00 | 0.00 | 67 | 1015.0 |
| 20260903231053 | 32 | 143 | 1.6 | 6.4 | 0.00 | 0.00 | 0.00 | 66 | 1015.1 |
| 20260903230302 | 32 | 188 | 1.6 | 8.0 | 0.00 | 0.00 | 0.00 | 65 | 1015.2 |
| 20260903225759 | 32 | 160 | 1.6 | 8.0 | 0.00 | 0.00 | 0.00 | 65 | 1015.1 |
| 20260903225252 | 32 | 171 | 1.6 | 6.4 | 0.00 | 0.00 | 0.00 | 64 | 1015.0 |
| 20260903224748 | 33 | 210 | 1.6 | 6.4 | 0.00 | 0.00 | 0.00 | 64 | 1014.9 |
| 20260903224241 | 33 | 215 | 1.6 | 4.8 | 0.00 | 0.00 | 0.00 | 63 | 1014.8 |
| 20260903224036 | 33 | 125 | 1.6 | 6.4 | 0.00 | 0.00 | 0.00 | 62 | 1014.7 |
| 20260903223238 | 33 | 100 | 3.2 | 8.0 | 0.00 | 0.00 | 0.00 | 61 | 1014.7 |
| 20260903222739 | 33 | 215 | 3.2 | 12.9 | 0.00 | 0.00 | 0.00 | 60 | 1014.8 |
| 20260903222239 | 33 | 162 | 3.2 | 12.9 | 0.00 | 0.00 | 0.00 | 60 | 1014.8 |
| 20260903221736 | 33 | 215 | 3.2 | 11.3 | 0.00 | 0.00 | 0.00 | 60 | 1014.7 |
| 20260903221236 | 33 | 151 | 3.2 | 12.9 | 0.00 | 0.00 | 0.00 | 58 | 1014.7 |
| 20260903220738 | 33 | 167 | 3.2 | 12.9 | 0.00 | 0.00 | 0.00 | 59 | 1014.7 |
| 20260903220235 | 33 | 194 | 3.2 | 12.9 | 0.00 | 0.00 | 0.00 | 58 | 1014.7 |
| 20260903215735 | 33 | 198 | 4.8 | 17.7 | 0.00 | 0.00 | 0.00 | 56 | 1014.7 |
| 20260903215236 | 33 | 198 | 4.8 | 17.7 | 0.00 | 0.00 | 0.00 | 55 | 1014.8 |
| 20260903214732 | 33 | 196 | 6.4 | 14.5 | 0.00 | 0.00 | 0.00 | 56 | 1014.8 |
| 20260903214522 | 34 | 201 | 6.4 | 14.5 | 0.00 | 0.00 | 0.00 | 55 | 1014.7 |
| 20260903214021 | 34 | 198 | 3.2 | 14.5 | 0.00 | 0.00 | 0.00 | 56 | 1014.7 |
| 20260903213232 | 34 | 210 | 4.8 | 14.5 | 0.00 | 0.00 | 0.00 | 56 | 1014.6 |
| 20260903212729 | 33 | 153 | 4.8 | 14.5 | 0.00 | 0.00 | 0.00 | 56 | 1014.7 |
| 20260903212327 | 33 | 282 | 8.0 | 19.3 | 0.00 | 0.00 | 0.00 | 56 | 1014.8 |
| 20260903212307 | 33 | 261 | 6.4 | 19.3 | 0.00 | 0.00 | 0.00 | 57 | 1014.6 |
| 20260903211522 | 33 | 175 | 6.4 | 19.3 | 0.00 | 0.00 | 0.00 | 55 | 1014.8 |
| 20260903210725 | 33 | 194 | 4.8 | 17.7 | 0.00 | 0.00 | 0.00 | 58 | 1014.9 |
| 20260903210218 | 33 | 174 | 4.8 | 17.7 | 0.00 | 0.00 | 0.00 | 57 | 1014.9 |
| 20260903205712 | 33 | 166 | 4.8 | 17.7 | 0.00 | 0.00 | 0.00 | 58 | 1014.9 |
| 20260903205208 | 34 | 248 | 4.8 | 17.7 | 0.00 | 0.00 | 0.00 | 57 | 1014.8 |
| 20260903204708 | 33 | 199 | 4.8 | 14.5 | 0.00 | 0.00 | 0.00 | 57 | 1014.9 |
| 20260903204208 | 33 | 176 | 4.8 | 14.5 | 0.00 | 0.00 | 0.00 | 57 | 1015.0 |
| 20260903203708 | 33 | 196 | 4.8 | 17.7 | 0.00 | 0.00 | 0.00 | 58 | 1015.0 |
| 20260903203502 | 33 | 237 | 4.8 | 17.7 | 0.00 | 0.00 | 0.00 | 60 | 1015.0 |
| 20260903202708 | 33 | 227 | 4.8 | 14.5 | 0.00 | 0.00 | 0.00 | 58 | 1015.1 |
| 20260903202207 | 33 | 196 | 4.8 | 12.9 | 0.00 | 0.00 | 0.00 | 59 | 1015.1 |
| 20260903201708 | 33 | 143 | 4.8 | 12.9 | 0.00 | 0.00 | 0.00 | 59 | 1015.2 |
| 20260903201209 | 33 | 217 | 4.8 | 14.5 | 0.00 | 0.00 | 0.00 | 59 | 1015.2 |
| 20260903200708 | 32 | 191 | 4.8 | 14.5 | 0.00 | 0.00 | 0.00 | 60 | 1015.3 |
| 20260903200208 | 32 | 168 | 4.8 | 19.3 | 0.00 | 0.00 | 0.00 | 60 | 1015.4 |
| 20260903195708 | 32 | 234 | 4.8 | 19.3 | 0.00 | 0.00 | 0.00 | 61 | 1015.4 |
| 20260903195503 | 32 | 125 | 4.8 | 14.5 | 0.00 | 0.00 | 0.00 | 62 | 1015.6 |
| 20260903194709 | 32 | 143 | 4.8 | 17.7 | 0.00 | 0.00 | 0.00 | 61 | 1015.8 |
| 20260903194212 | 31 | 180 | 4.8 | 17.7 | 0.00 | 0.00 | 0.00 | 63 | 1015.9 |
| 20260903193708 | 31 | 255 | 4.8 | 12.9 | 0.00 | 0.00 | 0.00 | 62 | 1015.9 |
| 20260903193207 | 32 | 188 | 3.2 | 11.3 | 0.00 | 0.00 | 0.00 | 61 | 1016.1 |
| 20260903192708 | 31 | 129 | 3.2 | 14.5 | 0.00 | 0.00 | 0.00 | 64 | 1016.2 |
| 20260903192208 | 31 | 210 | 4.8 | 14.5 | 0.00 | 0.00 | 0.00 | 64 | 1016.2 |
| 20260903191707 | 31 | 181 | 3.2 | 12.9 | 0.00 | 0.00 | 0.00 | 67 | 1016.2 |
| 20260903191209 | 31 | 274 | 3.2 | 12.9 | 0.00 | 0.00 | 0.00 | 64 | 1016.2 |
| 20260903191002 | 31 | 234 | 3.2 | 12.9 | 0.00 | 0.00 | 0.00 | 65 | 1016.3 |
| 20260903190208 | 31 | 271 | 3.2 | 12.9 | 0.00 | 0.00 | 0.00 | 65 | 1016.4 |
| 20260903185709 | 31 | 215 | 3.2 | 12.9 | 0.00 | 0.00 | 0.00 | 66 | 1016.4 |
| 20260903185210 | 31 | 210 | 4.8 | 12.9 | 0.00 | 0.00 | 0.00 | 65 | 1016.5 |
| 20260903184706 | 31 | 208 | 4.8 | 12.9 | 0.00 | 0.00 | 0.00 | 64 | 1016.6 |
| 20260903184207 | 31 | 171 | 4.8 | 14.5 | 0.00 | 0.00 | 0.00 | 65 | 1016.7 |
| 20260903183707 | 31 | 194 | 4.8 | 17.7 | 0.00 | 0.00 | 0.00 | 65 | 1017.0 |
| 20260903183206 | 31 | 187 | 3.2 | 17.7 | 0.00 | 0.00 | 0.00 | 64 | 1016.7 |
| 20260903182707 | 31 | 222 | 3.2 | 14.5 | 0.00 | 0.00 | 0.00 | 65 | 1016.6 |
| 20260903182206 | 31 | 194 | 4.8 | 14.5 | 0.00 | 0.00 | 0.00 | 64 | 1016.5 |
| 20260903181707 | 30 | 217 | 3.2 | 14.5 | 0.00 | 0.00 | 0.00 | 65 | 1016.6 |
| 20260903181207 | 30 | 158 | 3.2 | 17.7 | 0.00 | 0.05 | 0.00 | 67 | 1016.8 |
| 20260903180702 | 30 | 279 | 4.8 | 17.7 | 0.00 | 0.33 | 0.00 | 66 | 1017.0 |
| 20260903180202 | 30 | 178 | 4.8 | 11.3 | 0.00 | 0.69 | 0.00 | 68 | 1016.9 |
| 20260903175702 | 30 | 201 | 3.2 | 11.3 | 0.00 | 0.94 | 0.00 | 68 | 1016.7 |
| 20260903175203 | 30 | 205 | 3.2 | 11.3 | 0.00 | 0.94 | 0.00 | 67 | 1016.6 |
| 20260903174703 | 30 | 143 | 4.8 | 14.5 | 0.00 | 0.94 | 0.00 | 67 | 1016.6 |
| 20260903174202 | 30 | 251 | 4.8 | 14.5 | 0.00 | 0.94 | 0.00 | 67 | 1017.1 |
| 20260903173703 | 30 | 269 | 4.8 | 14.5 | 0.00 | 0.94 | 0.00 | 67 | 1017.3 |
| 20260903173457 | 30 | 129 | 4.8 | 14.5 | 0.00 | 0.94 | 0.00 | 67 | 1017.5 |
| 20260903172703 | 30 | 143 | 3.2 | 11.3 | 0.00 | 0.94 | 0.00 | 69 | 1017.7 |
| 20260903172202 | 29 | 153 | 4.8 | 12.9 | 0.00 | 0.94 | 0.00 | 68 | 1017.8 |
| 20260903171703 | 29 | 169 | 4.8 | 14.5 | 0.00 | 0.94 | 0.00 | 71 | 1017.8 |
| 20260903171202 | 28 | 242 | 4.8 | 14.5 | 0.00 | 0.94 | 0.00 | 71 | 1017.9 |
| 20260903170702 | 28 | 188 | 3.2 | 12.9 | 0.00 | 0.94 | 0.00 | 72 | 1018.0 |
| 20260903170202 | 28 | 188 | 3.2 | 11.3 | 0.00 | 0.94 | 0.00 | 74 | 1018.0 |
| 20260903165702 | 28 | 183 | 3.2 | 11.3 | 0.00 | 0.94 | 0.00 | 75 | 1018.1 |
| 20260903165202 | 27 | 162 | 4.8 | 12.9 | 0.00 | 0.94 | 0.00 | 76 | 1018.2 |
| 20260903164702 | 27 | 192 | 3.2 | 12.9 | 0.00 | 0.94 | 0.00 | 79 | 1018.4 |
| 20260903164458 | 26 | 260 | 3.2 | 11.3 | 0.00 | 0.94 | 0.00 | 81 | 1018.3 |
| 20260903163704 | 26 | 117 | 3.2 | 11.3 | 0.00 | 0.94 | 0.00 | 82 | 1018.1 |
| 20260903163203 | 26 | 169 | 3.2 | 11.3 | 0.00 | 0.94 | 0.00 | 83 | 1018.1 |
| 20260903162704 | 26 | 205 | 3.2 | 14.5 | 0.00 | 0.94 | 0.00 | 83 | 1018.1 |
| 20260903162202 | 26 | 198 | 3.2 | 14.5 | 0.00 | 0.94 | 0.00 | 83 | 1018.4 |
| 20260903161955 | 26 | 353 | 3.2 | 12.9 | 0.00 | 0.94 | 0.00 | 84 | 1018.7 |
| 20260903161203 | 26 | 134 | 3.2 | 11.3 | 0.00 | 0.94 | 0.00 | 85 | 1018.7 |
| 20260903160703 | 26 | 281 | 3.2 | 12.9 | 0.00 | 0.94 | 0.00 | 85 | 1019.1 |
| 20260903160203 | 26 | 28 | 1.6 | 12.9 | 0.00 | 0.94 | 0.00 | 86 | 1019.1 |
| 20260903155704 | 26 | 275 | 1.6 | 6.4 | 0.00 | 0.94 | 0.00 | 86 | 1019.2 |
| 20260903155202 | 26 | 54 | 1.6 | 19.3 | 0.00 | 0.94 | 0.00 | 86 | 1019.1 |
| 20260903154702 | 25 | 326 | 3.2 | 19.3 | 0.00 | 0.94 | 0.00 | 86 | 1019.4 |
| 20260903154500 | 26 | 311 | 3.2 | 17.7 | 0.00 | 0.94 | 0.00 | 86 | 1020.1 |
| 20260903153702 | 25 | 28 | 4.8 | 19.3 | 0.00 | 0.94 | 0.00 | 86 | 1020.0 |
| 20260903153202 | 25 | 261 | 6.4 | 22.5 | 0.00 | 0.94 | 0.00 | 87 | 1019.9 |
| 20260903152701 | 25 | 100 | 4.8 | 22.5 | 0.00 | 0.94 | 0.00 | 87 | 1019.6 |
| 20260903152200 | 25 | 286 | 3.2 | 14.5 | 0.00 | 0.94 | 0.00 | 89 | 1019.2 |
| 20260903152001 | 25 | 210 | 3.2 | 12.9 | 0.00 | 0.94 | 0.00 | 89 | 1018.9 |
| 20260903151201 | 25 | 176 | 3.2 | 12.9 | 0.00 | 0.94 | 0.00 | 90 | 1018.7 |
| 20260903150956 | 25 | 208 | 3.2 | 12.9 | 0.00 | 0.94 | 0.00 | 91 | 1018.7 |
| 20260903150201 | 25 | 178 | 3.2 | 12.9 | 0.00 | 0.94 | 0.00 | 92 | 1018.8 |
| 20260903145701 | 25 | 198 | 3.2 | 11.3 | 0.00 | 0.94 | 0.00 | 93 | 1018.7 |
| 20260903145201 | 24 | 224 | 1.6 | 6.4 | 0.00 | 0.94 | 0.00 | 94 | 1018.7 |
| 20260903144702 | 24 | 166 | 1.6 | 8.0 | 0.00 | 0.94 | 0.00 | 94 | 1018.6 |
| 20260903144455 | 24 | 73 | 3.2 | 8.0 | 0.00 | 0.94 | 0.00 | 94 | 1018.6 |
| 20260903143701 | 24 | 222 | 3.2 | 8.0 | 0.00 | 0.94 | 0.00 | 95 | 1018.5 |
| 20260903143202 | 24 | 178 | 3.2 | 8.0 | 0.00 | 0.94 | 0.00 | 95 | 1018.3 |
| 20260903142702 | 23 | 11 | 3.2 | 11.3 | 0.00 | 0.94 | 0.00 | 95 | 1018.3 |
| 20260903142202 | 23 | 188 | 3.2 | 11.3 | 0.00 | 0.94 | 0.00 | 95 | 1018.3 |
| 20260903141701 | 23 | 164 | 3.2 | 11.3 | 0.00 | 0.94 | 0.00 | 95 | 1018.2 |
| 20260903141204 | 23 | 173 | 1.6 | 11.3 | 0.00 | 0.94 | 0.00 | 95 | 1018.3 |
| 20260903140703 | 23 | 166 | 1.6 | 6.4 | 0.00 | 0.94 | 0.00 | 95 | 1018.0 |
| 20260903140203 | 23 | 100 | 3.2 | 8.0 | 0.00 | 0.94 | 0.00 | 95 | 1017.9 |
| 20260903135702 | 23 | 217 | 3.2 | 8.0 | 0.00 | 0.94 | 0.00 | 95 | 1018.2 |
| 20260903135203 | 23 | 187 | 3.2 | 8.0 | 0.00 | 0.94 | 0.00 | 95 | 1018.1 |
| 20260903134703 | 23 | 171 | 1.6 | 6.4 | 0.00 | 0.94 | 0.00 | 95 | 1017.9 |
| 20260903134455 | 23 | 167 | 3.2 | 11.3 | 0.00 | 0.94 | 0.00 | 95 | 1017.7 |
| 20260903133957 | 23 | 143 | 3.2 | 11.3 | 0.00 | 0.94 | 0.00 | 95 | 1018.0 |
| 20260903133200 | 23 | 234 | 1.6 | 8.0 | 0.00 | 0.94 | 0.00 | 95 | 1018.1 |
| 20260903132701 | 23 | 205 | 1.6 | 8.0 | 0.00 | 0.94 | 0.00 | 95 | 1018.0 |
| 20260903132201 | 23 | 234 | 1.6 | 4.8 | 0.00 | 0.94 | 0.00 | 95 | 1017.9 |
| 20260903131701 | 23 | 171 | 1.6 | 4.8 | 0.00 | 0.94 | 0.00 | 95 | 1018.2 |
| 20260903131201 | 23 | 171 | 1.6 | 6.4 | 0.00 | 0.94 | 0.00 | 95 | 1018.6 |
| 20260903130953 | 23 | 110 | 1.6 | 6.4 | 0.00 | 0.94 | 0.00 | 95 | 1018.8 |
| 20260903130203 | 23 | 11 | 1.6 | 4.8 | 0.00 | 0.94 | 0.00 | 95 | 1018.8 |
| 20260903125954 | 23 | 66 | 1.6 | 6.4 | 0.00 | 0.94 | 0.00 | 95 | 1019.1 |
| 20260903125201 | 23 | 125 | 1.6 | 6.4 | 0.00 | 0.94 | 0.00 | 96 | 1019.3 |
| 20260903124702 | 23 | 178 | 1.6 | 6.4 | 0.00 | 0.94 | 0.00 | 95 | 1019.2 |
| 20260903124204 | 22 | 279 | 1.6 | 4.8 | 0.00 | 0.94 | 0.00 | 95 | 1019.2 |
| 20260903123701 | 22 | 155 | 1.6 | 4.8 | 0.00 | 0.94 | 0.00 | 95 | 1019.3 |
| 20260903123456 | 22 | 162 | 1.6 | 4.8 | 0.00 | 0.94 | 0.00 | 95 | 1019.3 |
| 20260903122702 | 22 | 11 | 0.0 | 1.6 | 0.00 | 0.94 | 0.00 | 95 | 1019.3 |